Content
SEND FEEDBACK

Daily
Averages
Monthly
Summary
United States of America

ENTERPRISE, ALABAMA


Home > North America > United States > Alabama
Elevation: 298 feet     Latitude: 31 17N     Longitude: 085 43W

WEATHER
 
SELECT A DAY
Number of Records: 63,269;   Date Range: 2/10/98 - 7/26/14
 
SHARE

PRINT THIS DATA

[ ← Previous Day ]
WEATHER ALMANAC - MARCH 14, 2014
[ Next Day → ]
[ °C ]   °F
Weather ElementAverageHighLow
Temperature47.4 °F69.1 °F (3:53 pm)30.9 °F (6:53 am)
Dewpoint32.7 °F43 °F (10:53 pm)26.1 °F (10:53 am)
Humidity64.9 %93 % (1:17 am)22 % (2:53 pm)
Barometer30.23 in30.32 in (9:53 am)30.14 in (4:53 pm)
Wind Speed3.4 mph10.4 mph (11:53 am)
Wind Gust20.7 mph (12:53 pm)
Weather ElementAverage
Visibility5.9 mi
Wind DirectionENE (78.8 °)

Weather ElementTotal
Precipitation---
Heating Degree Days15 (Base 65)
Averaged from 32 records on March 14, 2014
WEATHER CONDITIONS BREAKOUT
WIND DIRECTION BREAKOUT
WEATHER BY HOUR - MARCH 14, 2014
[ °C ]   °F
Local TimeTemperatureDewpointHumidityBarometerVisibilityWind DirectionWind SpeedGust SpeedPrecipitationEventsConditions
12:37 AM36.0 °F33.1 °F89 %30.25 in3.0 miCalmClear
12:53 AM35.1 °F33.1 °F92 %30.25 in3.0 miCalmClear
1:17 AM36.0 °F34.0 °F93 %30.24 in2.0 miCalmClear
1:31 AM36.0 °F33.1 °F89 %30.25 in1.8 miCalmClear
1:38 AM35.1 °F32.0 °F89 %30.25 in2.0 miCalmClear
1:53 AM35.1 °F32.0 °F89 %30.25 in3.0 miCalmClear
2:20 AM34.0 °F30.9 °F89 %30.24 in1.5 miCalmClear
2:53 AM34.0 °F30.9 °F89 %30.24 in1.2 miCalmClear
3:53 AM33.1 °F30.9 °F92 %30.24 in1.2 miCalmClear
4:10 AM33.1 °F30.9 °F92 %30.24 in0.8 miCalmClear
4:19 AM33.1 °F30.9 °F92 %30.24 in1.2 miCalmClear
4:53 AM33.1 °F30.0 °F89 %30.24 in1.2 miCalmClear
5:53 AM32.0 °F30.0 °F92 %30.25 in1.5 miCalmClear
6:53 AM30.9 °F28.0 °F89 %30.26 in1.2 miCalmClear
7:53 AM35.1 °F32.0 °F89 %30.28 in1.0 miCalmClear
8:27 AM45.0 °F36.0 °F71 %30.28 in3.0 miCalmHaze
8:53 AM48.9 °F32.0 °F52 %30.30 in9.0 miCalmPartly Cloudy
9:53 AM55.0 °F28.0 °F35 %30.32 in10.0 miSE (140°)8.1 mphClear
10:53 AM60.1 °F26.1 °F27 %30.32 in10.0 miSouth (180°)9.2 mph17.3 mphClear
11:53 AM62.1 °F26.1 °F25 %30.28 in10.0 miSSE (160°)10.4 mph16.1 mphClear
12:53 PM64.0 °F27.0 °F25 %30.25 in10.0 miSouth (180°)9.2 mph20.7 mphClear
1:53 PM66.0 °F27.0 °F23 %30.22 in10.0 miSSW (200°)9.2 mph17.3 mphClear
2:53 PM68.0 °F28.0 °F22 %30.18 in10.0 miSW (220°)6.9 mphClear
3:53 PM69.1 °F28.9 °F22 %30.16 in10.0 miSouth (170°)9.2 mphClear
4:53 PM69.1 °F32.0 °F25 %30.14 in10.0 miSouth (190°)9.2 mphClear
5:53 PM68.0 °F35.1 °F30 %30.14 in10.0 miSSW (210°)10.4 mphClear
6:53 PM63.0 °F37.9 °F40 %30.16 in10.0 miSW (230°)8.1 mphPartly Cloudy
7:53 PM60.1 °F39.9 °F47 %30.16 in10.0 miSW (220°)9.2 mphClear
8:53 PM55.9 °F42.1 °F60 %30.18 in10.0 miSW (230°)5.8 mphClear
9:53 PM53.1 °F42.1 °F66 %30.19 in10.0 miSouth (190°)4.6 mphClear
10:53 PM52.0 °F43.0 °F71 %30.18 in10.0 miCalmClear
11:53 PM46.9 °F42.1 °F83 %30.18 in10.0 miCalmClear
Hourly data recorded from KLOR, located miles away from Enterprise, Alabama







STORIES FROM OUR PARTNERS